GLO1644 SBGR-SBJP

Flight info

Callsign GLO1644
Flight time 2h 43m
Altitude 35000
Route VUMEV UZ14 AKPAS DCT ANBEX
Aircraft B738/M-SDE2E3FGHIRWXY/LB1

Departure

Time 2026-04-22 03:42
Airport São Paulo/Guarulhos–Governor André Franco Montoro International Airport (SBGR)

Arrival

Time 2026-04-22 06:26
Airport Presidente Castro Pinto International Airport (SBJP)
Time Latitude Longitude Altitude Speed Heading
2026-04-22 03:06 -23.42866 -46.48386 2466 ft 0 kts 85°
2026-04-22 03:33 -23.42866 -46.48390 2466 ft 2 kts 85°
2026-04-22 03:33 -23.42868 -46.48406 2466 ft 2 kts 85°
2026-04-22 03:34 -23.42869 -46.48423 2466 ft 2 kts 85°
2026-04-22 03:34 -23.42870 -46.48439 2466 ft 2 kts 100°
2026-04-22 03:34 -23.42864 -46.48454 2466 ft 2 kts 129°
2026-04-22 03:34 -23.42852 -46.48464 2466 ft 2 kts 158°
2026-04-22 03:35 -23.42841 -46.48467 2466 ft 0 kts 178°
2026-04-22 03:35 -23.42834 -46.48467 2466 ft 0 kts 181°
2026-04-22 03:38 -23.42857 -46.48467 2466 ft 4 kts 181°
2026-04-22 03:38 -23.42888 -46.48470 2466 ft 5 kts 192°
2026-04-22 03:38 -23.42945 -46.48487 2466 ft 9 kts 185°
2026-04-22 03:39 -23.43011 -46.48488 2466 ft 9 kts 180°
2026-04-22 03:39 -23.43070 -46.48477 2466 ft 8 kts 163°
2026-04-22 03:39 -23.43123 -46.48461 2466 ft 7 kts 163°
2026-04-22 03:39 -23.43172 -46.48445 2466 ft 7 kts 163°
2026-04-22 03:40 -23.43217 -46.48431 2466 ft 6 kts 163°
2026-04-22 03:40 -23.43258 -46.48417 2466 ft 6 kts 163°
2026-04-22 03:40 -23.43297 -46.48404 2466 ft 5 kts 162°
2026-04-22 03:40 -23.43342 -46.48389 2466 ft 10 kts 162°
2026-04-22 03:41 -23.43410 -46.48365 2466 ft 5 kts 158°
2026-04-22 03:41 -23.43426 -46.48337 2466 ft 4 kts 81°
2026-04-22 03:41 -23.43419 -46.48308 2466 ft 4 kts 74°
2026-04-22 03:41 -23.43378 -46.48156 2466 ft 52 kts 73°
2026-04-22 03:42 -23.43211 -46.47536 2466 ft 117 kts 73°
2026-04-22 03:42 -23.42925 -46.46479 2468 ft 173 kts 73°
2026-04-22 03:42 -23.42565 -46.45166 2959 ft 182 kts 74°
2026-04-22 03:42 -23.42187 -46.43878 3778 ft 177 kts 72°
2026-04-22 03:43 -23.41774 -46.42592 4275 ft 185 kts 71°
2026-04-22 03:43 -23.41355 -46.41283 4886 ft 185 kts 73°
2026-04-22 03:43 -23.40973 -46.39962 5449 ft 187 kts 73°
2026-04-22 03:43 -23.40588 -46.38598 5947 ft 194 kts 74°
2026-04-22 03:44 -23.40179 -46.37115 6225 ft 215 kts 73°
2026-04-22 03:44 -23.39619 -46.35574 6758 ft 225 kts 63°
2026-04-22 03:44 -23.38771 -46.34065 7133 ft 243 kts 57°
2026-04-22 03:44 -23.37786 -46.32485 7530 ft 261 kts 57°
2026-04-22 03:45 -23.36762 -46.30809 8057 ft 273 kts 58°
2026-04-22 03:45 -23.35734 -46.29028 8604 ft 283 kts 59°
2026-04-22 03:45 -23.34686 -46.27192 9188 ft 292 kts 59°
2026-04-22 03:45 -23.33595 -46.25297 9842 ft 298 kts 59°
2026-04-22 03:46 -23.32506 -46.23397 10582 ft 300 kts 59°
2026-04-22 03:46 -23.31362 -46.21392 10764 ft 323 kts 59°
2026-04-22 03:46 -23.30164 -46.19310 11214 ft 334 kts 59°
2026-04-22 03:46 -23.28885 -46.17103 11546 ft 350 kts 59°
2026-04-22 03:47 -23.27557 -46.14829 11866 ft 365 kts 58°
2026-04-22 03:47 -23.26192 -46.12494 12511 ft 367 kts 58°
2026-04-22 03:47 -23.24819 -46.10128 13099 ft 372 kts 59°
2026-04-22 03:47 -23.23432 -46.07736 13735 ft 374 kts 58°
2026-04-22 03:48 -23.21930 -46.05458 14305 ft 378 kts 50°
2026-04-22 03:48 -23.19951 -46.03536 14732 ft 386 kts 32°
2026-04-22 03:48 -23.17488 -46.02302 15272 ft 389 kts 20°
2026-04-22 03:48 -23.14944 -46.01343 15859 ft 391 kts 17°
2026-04-22 03:49 -23.12307 -46.00625 16497 ft 392 kts 10°
2026-04-22 03:49 -23.09587 -46.00144 16980 ft 396 kts
2026-04-22 03:49 -23.06853 -45.99793 17597 ft 397 kts
2026-04-22 03:49 -23.04094 -45.99491 18081 ft 401 kts
2026-04-22 03:50 -23.01294 -45.99197 18553 ft 405 kts
2026-04-22 03:50 -22.98448 -45.98890 19000 ft 409 kts
2026-04-22 03:50 -22.95602 -45.98569 19441 ft 414 kts
2026-04-22 03:50 -22.92723 -45.98196 19871 ft 418 kts
2026-04-22 03:51 -22.89863 -45.97552 20274 ft 424 kts 14°
2026-04-22 03:51 -22.87057 -45.96402 20659 ft 431 kts 25°
2026-04-22 03:51 -22.84413 -45.94807 21087 ft 435 kts 31°
2026-04-22 03:51 -22.81856 -45.92997 21441 ft 440 kts 33°
2026-04-22 03:52 -22.79332 -45.91078 21852 ft 443 kts 34°
2026-04-22 03:52 -22.76842 -45.89138 22231 ft 447 kts 35°
2026-04-22 03:52 -22.74309 -45.87160 22608 ft 451 kts 35°
2026-04-22 03:52 -22.71751 -45.85171 23032 ft 453 kts 35°
2026-04-22 03:53 -22.69167 -45.83178 23455 ft 455 kts 34°
2026-04-22 03:53 -22.66553 -45.81176 23836 ft 458 kts 34°
2026-04-22 03:53 -22.63921 -45.79173 24258 ft 460 kts 34°
2026-04-22 03:53 -22.61299 -45.77188 24617 ft 464 kts 34°
2026-04-22 03:54 -22.58599 -45.75150 24991 ft 467 kts 34°
2026-04-22 03:54 -22.55932 -45.73143 25386 ft 470 kts 34°
2026-04-22 03:54 -22.53246 -45.71125 25734 ft 473 kts 34°
2026-04-22 03:54 -22.50510 -45.69072 26059 ft 477 kts 34°
2026-04-22 03:55 -22.47762 -45.67013 26467 ft 478 kts 34°
2026-04-22 03:55 -22.45001 -45.64945 26815 ft 481 kts 34°
2026-04-22 03:55 -22.42236 -45.62877 27178 ft 483 kts 34°
2026-04-22 03:55 -22.39477 -45.60813 27566 ft 484 kts 34°
2026-04-22 03:56 -22.36669 -45.58713 27901 ft 487 kts 34°
2026-04-22 03:56 -22.33869 -45.56620 28183 ft 491 kts 34°
2026-04-22 03:56 -22.31039 -45.54507 28539 ft 492 kts 34°
2026-04-22 03:56 -22.28239 -45.52416 28893 ft 494 kts 34°
2026-04-22 03:57 -22.25403 -45.50299 29291 ft 494 kts 34°
2026-04-22 03:57 -22.22556 -45.48176 29841 ft 491 kts 34°
2026-04-22 03:57 -22.19727 -45.46066 30264 ft 491 kts 34°
2026-04-22 03:57 -22.16925 -45.43979 30617 ft 492 kts 34°
2026-04-22 03:58 -22.14094 -45.41871 30980 ft 492 kts 34°
2026-04-22 03:58 -22.11260 -45.39762 31382 ft 492 kts 35°
2026-04-22 03:58 -22.08435 -45.37660 31752 ft 492 kts 35°
2026-04-22 03:58 -22.05577 -45.35534 32108 ft 492 kts 35°
2026-04-22 03:59 -22.02765 -45.33428 32458 ft 492 kts 36°
2026-04-22 03:59 -21.99986 -45.31221 32828 ft 492 kts 38°
2026-04-22 03:59 -21.97263 -45.28945 33273 ft 490 kts 39°
2026-04-22 03:59 -21.94602 -45.26667 33682 ft 489 kts 39°
2026-04-22 04:00 -21.91931 -45.24360 34007 ft 489 kts 39°
2026-04-22 04:00 -21.89312 -45.22099 34277 ft 490 kts 39°
2026-04-22 04:00 -21.86770 -45.19914 34543 ft 491 kts 39°
2026-04-22 04:00 -21.84120 -45.17646 34920 ft 489 kts 39°
2026-04-22 04:01 -21.81426 -45.15353 35171 ft 489 kts 39°
2026-04-22 04:01 -21.78752 -45.13085 35167 ft 492 kts 39°
2026-04-22 04:01 -21.73387 -45.08558 35169 ft 487 kts 39°
2026-04-22 04:02 -21.67999 -45.04026 35170 ft 489 kts 39°
2026-04-22 04:02 -21.62671 -44.99555 35164 ft 488 kts 39°
2026-04-22 04:03 -21.57303 -44.95055 35161 ft 488 kts 39°
2026-04-22 04:03 -21.51951 -44.90572 35154 ft 487 kts 39°
2026-04-22 04:04 -21.46587 -44.86083 35156 ft 487 kts 39°
2026-04-22 04:04 -21.41232 -44.81604 35155 ft 486 kts 39°
2026-04-22 04:05 -21.35888 -44.77140 35156 ft 488 kts 39°
2026-04-22 04:05 -21.30520 -44.72659 35152 ft 487 kts 39°
2026-04-22 04:06 -21.25188 -44.68209 35156 ft 486 kts 39°
2026-04-22 04:06 -21.19822 -44.63736 35154 ft 486 kts 39°
2026-04-22 04:07 -21.14485 -44.59291 35152 ft 486 kts 39°
2026-04-22 04:07 -21.09171 -44.54868 35153 ft 485 kts 39°
2026-04-22 04:08 -21.03822 -44.50422 35152 ft 484 kts 39°
2026-04-22 04:08 -20.98473 -44.45980 35154 ft 485 kts 39°
2026-04-22 04:09 -20.93139 -44.41557 35155 ft 484 kts 39°
2026-04-22 04:09 -20.87793 -44.37128 35160 ft 484 kts 39°
2026-04-22 04:10 -20.82429 -44.32692 35165 ft 483 kts 38°
2026-04-22 04:10 -20.77081 -44.28270 35167 ft 482 kts 39°
2026-04-22 04:11 -20.71773 -44.23885 35168 ft 481 kts 39°
2026-04-22 04:11 -20.66470 -44.19509 35161 ft 481 kts 39°
2026-04-22 04:12 -20.61168 -44.15122 35156 ft 482 kts 39°
2026-04-22 04:12 -20.55866 -44.10664 35156 ft 482 kts 39°
2026-04-22 04:13 -20.50626 -44.06237 35155 ft 481 kts 39°
2026-04-22 04:13 -20.45319 -44.01822 35156 ft 482 kts 38°
2026-04-22 04:14 -20.40003 -43.97474 35157 ft 480 kts 38°
2026-04-22 04:14 -20.34690 -43.93149 35161 ft 480 kts 38°
2026-04-22 04:15 -20.29355 -43.88806 35160 ft 482 kts 38°
2026-04-22 04:15 -20.24050 -43.84487 35159 ft 478 kts 39°
2026-04-22 04:16 -20.16089 -43.77996 35164 ft 481 kts 38°
2026-04-22 04:17 -20.10763 -43.73656 35170 ft 480 kts 38°
2026-04-22 04:17 -20.05445 -43.69328 35172 ft 480 kts 38°
2026-04-22 04:18 -20.00154 -43.65026 35168 ft 481 kts 38°
2026-04-22 04:18 -19.94856 -43.60725 35157 ft 479 kts 38°
2026-04-22 04:19 -19.89542 -43.56411 35148 ft 479 kts 38°
2026-04-22 04:19 -19.84382 -43.52220 35147 ft 478 kts 38°
2026-04-22 04:20 -19.79116 -43.47938 35149 ft 478 kts 39°
2026-04-22 04:20 -19.73813 -43.43628 35152 ft 478 kts 39°
2026-04-22 04:21 -19.68520 -43.39330 35155 ft 480 kts 38°
2026-04-22 04:21 -19.63242 -43.35048 35153 ft 479 kts 38°
2026-04-22 04:22 -19.58044 -43.30835 35148 ft 479 kts 38°
2026-04-22 04:22 -19.52694 -43.26505 35140 ft 484 kts 38°
2026-04-22 04:23 -19.47339 -43.22172 35137 ft 484 kts 39°
2026-04-22 04:23 -19.41979 -43.17838 35133 ft 485 kts 38°
2026-04-22 04:24 -19.36630 -43.13517 35128 ft 483 kts 39°
2026-04-22 04:24 -19.31280 -43.09201 35122 ft 482 kts 38°
2026-04-22 04:25 -19.25935 -43.04893 35118 ft 483 kts 39°
2026-04-22 04:25 -19.20581 -43.00579 35116 ft 482 kts 39°
2026-04-22 04:26 -19.15220 -42.96264 35117 ft 483 kts 38°
2026-04-22 04:26 -19.09890 -42.91978 35119 ft 483 kts 38°
2026-04-22 04:27 -19.04524 -42.87665 35120 ft 483 kts 38°
2026-04-22 04:27 -18.99139 -42.83340 35121 ft 483 kts 38°
2026-04-22 04:28 -18.93803 -42.79060 35127 ft 483 kts 38°
2026-04-22 04:28 -18.88434 -42.74758 35134 ft 480 kts 38°
2026-04-22 04:29 -18.83061 -42.70457 35140 ft 482 kts 38°
2026-04-22 04:29 -18.77718 -42.66183 35149 ft 482 kts 39°
2026-04-22 04:30 -18.72357 -42.61899 35151 ft 481 kts 38°
2026-04-22 04:30 -18.67007 -42.57626 35150 ft 481 kts 38°
2026-04-22 04:31 -18.61667 -42.53364 35137 ft 482 kts 39°
2026-04-22 04:31 -18.56301 -42.49084 35134 ft 480 kts 39°
2026-04-22 04:32 -18.50981 -42.44844 35122 ft 482 kts 39°
2026-04-22 04:32 -18.45620 -42.40573 35121 ft 480 kts 38°
2026-04-22 04:33 -18.40281 -42.36324 35124 ft 480 kts 39°
2026-04-22 04:33 -18.35133 -42.32233 35125 ft 479 kts 38°
2026-04-22 04:34 -18.29734 -42.27944 35128 ft 479 kts 38°
2026-04-22 04:34 -18.24410 -42.23718 35133 ft 480 kts 38°
2026-04-22 04:35 -18.19073 -42.19486 35119 ft 480 kts 38°
2026-04-22 04:35 -18.13719 -42.15244 35104 ft 480 kts 38°
2026-04-22 04:36 -18.08391 -42.11028 35103 ft 479 kts 38°
2026-04-22 04:36 -18.03041 -42.06796 35096 ft 479 kts 38°
2026-04-22 04:37 -17.97732 -42.02600 35096 ft 478 kts 38°
2026-04-22 04:37 -17.92419 -41.98401 35102 ft 476 kts 38°
2026-04-22 04:38 -17.87090 -41.94195 35108 ft 477 kts 38°
2026-04-22 04:38 -17.81769 -41.89999 35112 ft 476 kts 38°
2026-04-22 04:39 -17.76447 -41.85806 35114 ft 476 kts 38°
2026-04-22 04:39 -17.71146 -41.81630 35110 ft 476 kts 38°
2026-04-22 04:40 -17.65857 -41.77468 35107 ft 475 kts 38°
2026-04-22 04:40 -17.60566 -41.73307 35100 ft 476 kts 38°
2026-04-22 04:41 -17.55236 -41.69120 35096 ft 478 kts 38°
2026-04-22 04:41 -17.49894 -41.64927 35089 ft 477 kts 38°
2026-04-22 04:42 -17.44588 -41.60765 35090 ft 476 kts 38°
2026-04-22 04:42 -17.39271 -41.56598 35091 ft 476 kts 38°
2026-04-22 04:43 -17.33987 -41.52459 35087 ft 475 kts 38°
2026-04-22 04:43 -17.28658 -41.48286 35089 ft 475 kts 37°
2026-04-22 04:44 -17.23374 -41.44151 35093 ft 474 kts 37°
2026-04-22 04:44 -17.18079 -41.40011 35093 ft 475 kts 37°
2026-04-22 04:45 -17.12775 -41.35868 35095 ft 476 kts 37°
2026-04-22 04:45 -17.07433 -41.31698 35097 ft 475 kts 37°
2026-04-22 04:46 -17.02139 -41.27567 35095 ft 475 kts 37°
2026-04-22 04:46 -16.96843 -41.23439 35095 ft 475 kts 37°
2026-04-22 04:47 -16.91547 -41.19313 35089 ft 474 kts 37°
2026-04-22 04:47 -16.86212 -41.15160 35088 ft 474 kts 37°
2026-04-22 04:48 -16.80911 -41.11037 35085 ft 474 kts 37°
2026-04-22 04:48 -16.75628 -41.06930 35084 ft 474 kts 37°
2026-04-22 04:49 -16.70309 -41.02798 35086 ft 475 kts 37°
2026-04-22 04:49 -16.65008 -40.98684 35087 ft 476 kts 37°
2026-04-22 04:50 -16.59702 -40.94569 35090 ft 476 kts 37°
2026-04-22 04:50 -16.54343 -40.90414 35094 ft 475 kts 37°
2026-04-22 04:51 -16.49051 -40.86315 35097 ft 475 kts 37°
2026-04-22 04:51 -16.43739 -40.82204 35094 ft 475 kts 37°
2026-04-22 04:52 -16.38417 -40.78088 35088 ft 475 kts 37°
2026-04-22 04:52 -16.33125 -40.73998 35082 ft 475 kts 37°
2026-04-22 04:53 -16.27801 -40.69885 35074 ft 475 kts 37°
2026-04-22 04:53 -16.22487 -40.65784 35067 ft 474 kts 37°
2026-04-22 04:54 -16.17165 -40.61679 35070 ft 475 kts 37°
2026-04-22 04:54 -16.11865 -40.57594 35070 ft 475 kts 37°
2026-04-22 04:55 -16.06552 -40.53501 35071 ft 475 kts 37°
2026-04-22 04:55 -16.01232 -40.49406 35071 ft 474 kts 37°
2026-04-22 04:56 -15.95942 -40.45336 35072 ft 475 kts 37°
2026-04-22 04:56 -15.90627 -40.41254 35073 ft 473 kts 37°
2026-04-22 04:57 -15.85579 -40.37381 35071 ft 475 kts 37°
2026-04-22 04:57 -15.80115 -40.33193 35070 ft 472 kts 37°
2026-04-22 04:58 -15.74793 -40.29116 35066 ft 473 kts 37°
2026-04-22 04:58 -15.69493 -40.25058 35069 ft 474 kts 37°
2026-04-22 04:59 -15.64156 -40.20975 35072 ft 473 kts 37°
2026-04-22 04:59 -15.58875 -40.16938 35063 ft 474 kts 37°
2026-04-22 05:00 -15.53530 -40.12857 35060 ft 474 kts 37°
2026-04-22 05:00 -15.48234 -40.08822 35060 ft 472 kts 37°
2026-04-22 05:01 -15.42937 -40.04790 35052 ft 472 kts 37°
2026-04-22 05:01 -15.37619 -40.00745 35049 ft 472 kts 37°
2026-04-22 05:02 -15.32349 -39.96738 35050 ft 471 kts 37°
2026-04-22 05:02 -15.27012 -39.92680 35050 ft 470 kts 37°
2026-04-22 05:03 -15.21754 -39.88685 35054 ft 471 kts 37°
2026-04-22 05:03 -15.16412 -39.84630 35054 ft 472 kts 37°
2026-04-22 05:04 -15.11113 -39.80611 35057 ft 470 kts 37°
2026-04-22 05:04 -15.05867 -39.76634 35056 ft 470 kts 37°
2026-04-22 05:05 -15.00577 -39.72625 35056 ft 469 kts 37°
2026-04-22 05:05 -14.95282 -39.68621 35056 ft 470 kts 37°
2026-04-22 05:06 -14.89999 -39.64642 35048 ft 469 kts 37°
2026-04-22 05:06 -14.84804 -39.60733 35043 ft 469 kts 37°
2026-04-22 05:07 -14.79535 -39.56769 35041 ft 468 kts 37°
2026-04-22 05:07 -14.74275 -39.52815 35039 ft 468 kts 37°
2026-04-22 05:08 -14.68992 -39.48846 35031 ft 466 kts 37°
2026-04-22 05:08 -14.63744 -39.44906 35037 ft 466 kts 37°
2026-04-22 05:09 -14.58471 -39.40950 35029 ft 468 kts 37°
2026-04-22 05:09 -14.53178 -39.36979 35029 ft 466 kts 37°
2026-04-22 05:10 -14.47934 -39.33047 35025 ft 465 kts 37°
2026-04-22 05:10 -14.42680 -39.29110 35023 ft 467 kts 37°
2026-04-22 05:11 -14.37403 -39.25159 35024 ft 465 kts 37°
2026-04-22 05:11 -14.32157 -39.21234 35021 ft 466 kts 37°
2026-04-22 05:12 -14.26895 -39.17298 35015 ft 465 kts 37°
2026-04-22 05:12 -14.21658 -39.13384 35005 ft 464 kts 37°
2026-04-22 05:13 -14.16422 -39.09474 34997 ft 464 kts 37°
2026-04-22 05:13 -14.11187 -39.05566 34995 ft 463 kts 37°
2026-04-22 05:14 -14.05916 -39.01633 34990 ft 463 kts 37°
2026-04-22 05:14 -14.00691 -38.97736 34989 ft 464 kts 37°
2026-04-22 05:15 -13.95427 -38.93814 34988 ft 464 kts 37°
2026-04-22 05:15 -13.90233 -38.89946 34982 ft 463 kts 37°
2026-04-22 05:16 -13.85063 -38.86097 34982 ft 463 kts 37°
2026-04-22 05:16 -13.79835 -38.82206 34982 ft 462 kts 37°
2026-04-22 05:17 -13.74643 -38.78346 34980 ft 462 kts 37°
2026-04-22 05:17 -13.69427 -38.74470 34982 ft 462 kts 36°
2026-04-22 05:18 -13.61593 -38.68653 34983 ft 460 kts 37°
2026-04-22 05:18 -13.56413 -38.64809 34975 ft 460 kts 36°
2026-04-22 05:19 -13.51203 -38.60945 34979 ft 460 kts 36°
2026-04-22 05:19 -13.46011 -38.57097 34974 ft 460 kts 36°
2026-04-22 05:20 -13.40835 -38.53262 34974 ft 458 kts 36°
2026-04-22 05:20 -13.35685 -38.49448 34976 ft 458 kts 36°
2026-04-22 05:21 -13.30512 -38.45621 34974 ft 459 kts 36°
2026-04-22 05:21 -13.25309 -38.41772 34976 ft 457 kts 36°
2026-04-22 05:22 -13.20141 -38.37952 34975 ft 457 kts 36°
2026-04-22 05:22 -13.14963 -38.34125 34973 ft 457 kts 36°
2026-04-22 05:23 -13.09829 -38.30335 34978 ft 457 kts 36°
2026-04-22 05:23 -13.04662 -38.26522 34974 ft 456 kts 36°
2026-04-22 05:24 -12.99490 -38.22707 34977 ft 457 kts 36°
2026-04-22 05:24 -12.94322 -38.18897 34972 ft 457 kts 36°
2026-04-22 05:25 -12.89247 -38.15158 34974 ft 456 kts 36°
2026-04-22 05:25 -12.83992 -38.11288 34971 ft 455 kts 35°
2026-04-22 05:26 -12.78835 -38.07492 34971 ft 457 kts 35°
2026-04-22 05:26 -12.73677 -38.03697 34969 ft 457 kts 35°
2026-04-22 05:27 -12.68513 -37.99900 34967 ft 456 kts 35°
2026-04-22 05:27 -12.63359 -37.96111 34964 ft 456 kts 34°
2026-04-22 05:28 -12.58189 -37.92313 34966 ft 457 kts 34°
2026-04-22 05:28 -12.53022 -37.88520 34965 ft 456 kts 34°
2026-04-22 05:29 -12.47850 -37.84725 34959 ft 455 kts 34°
2026-04-22 05:29 -12.42685 -37.80938 34956 ft 454 kts 34°
2026-04-22 05:30 -12.37567 -37.77185 34955 ft 454 kts 33°
2026-04-22 05:30 -12.32432 -37.73423 34955 ft 452 kts 33°
2026-04-22 05:31 -12.27295 -37.69662 34956 ft 453 kts 33°
2026-04-22 05:31 -12.22177 -37.65915 34955 ft 451 kts 33°
2026-04-22 05:32 -12.17051 -37.62165 34956 ft 451 kts 33°
2026-04-22 05:32 -12.11958 -37.58440 34955 ft 449 kts 33°
2026-04-22 05:33 -12.06878 -37.54727 34956 ft 449 kts 33°
2026-04-22 05:33 -12.01815 -37.51028 34957 ft 448 kts 33°
2026-04-22 05:34 -11.96711 -37.47302 34955 ft 447 kts 33°
2026-04-22 05:34 -11.91620 -37.43628 34953 ft 446 kts 30°
2026-04-22 05:35 -11.86461 -37.40419 34955 ft 444 kts 27°
2026-04-22 05:35 -11.81064 -37.37311 34955 ft 444 kts 26°
2026-04-22 05:36 -11.75662 -37.34208 34953 ft 443 kts 26°
2026-04-22 05:36 -11.70321 -37.31105 34955 ft 443 kts 26°
2026-04-22 05:37 -11.64940 -37.27953 34951 ft 442 kts 26°
2026-04-22 05:37 -11.59613 -37.24820 34950 ft 441 kts 26°
2026-04-22 05:38 -11.54279 -37.21682 34952 ft 442 kts 27°
2026-04-22 05:38 -11.48972 -37.18560 34950 ft 442 kts 26°
2026-04-22 05:39 -11.43634 -37.15419 34950 ft 442 kts 27°
2026-04-22 05:39 -11.38279 -37.12270 34949 ft 441 kts 26°
2026-04-22 05:40 -11.32986 -37.09158 34951 ft 441 kts 26°
2026-04-22 05:40 -11.27644 -37.06018 34950 ft 440 kts 26°
2026-04-22 05:41 -11.22364 -37.02918 34949 ft 441 kts 26°
2026-04-22 05:41 -11.17008 -36.99773 34949 ft 440 kts 26°
2026-04-22 05:42 -11.11735 -36.96678 34951 ft 440 kts 26°
2026-04-22 05:42 -11.06431 -36.93567 34950 ft 439 kts 26°
2026-04-22 05:43 -11.01131 -36.90461 34950 ft 439 kts 26°
2026-04-22 05:43 -10.95844 -36.87364 34948 ft 437 kts 26°
2026-04-22 05:44 -10.90531 -36.84252 34947 ft 439 kts 27°
2026-04-22 05:44 -10.85348 -36.81217 34945 ft 438 kts 27°
2026-04-22 05:45 -10.80052 -36.78115 34941 ft 437 kts 27°
2026-04-22 05:45 -10.74760 -36.75019 34942 ft 438 kts 27°
2026-04-22 05:46 -10.69481 -36.71931 34941 ft 437 kts 27°
2026-04-22 05:46 -10.64201 -36.68844 34941 ft 436 kts 27°
2026-04-22 05:47 -10.58911 -36.65752 34943 ft 438 kts 27°
2026-04-22 05:47 -10.53631 -36.62668 34943 ft 438 kts 27°
2026-04-22 05:48 -10.48355 -36.59587 34938 ft 437 kts 27°
2026-04-22 05:48 -10.43060 -36.56496 34936 ft 437 kts 27°
2026-04-22 05:49 -10.37787 -36.53421 34936 ft 436 kts 27°
2026-04-22 05:49 -10.32522 -36.50351 34936 ft 436 kts 27°
2026-04-22 05:50 -10.27248 -36.47277 34942 ft 435 kts 27°
2026-04-22 05:50 -10.21984 -36.44209 34947 ft 436 kts 27°
2026-04-22 05:51 -10.16721 -36.41143 34950 ft 435 kts 27°
2026-04-22 05:51 -10.11460 -36.38079 34943 ft 435 kts 28°
2026-04-22 05:52 -10.06192 -36.35013 34953 ft 434 kts 28°
2026-04-22 05:52 -10.00935 -36.31953 34963 ft 434 kts 27°
2026-04-22 05:53 -9.95711 -36.28915 34958 ft 435 kts 28°
2026-04-22 05:53 -9.90441 -36.25852 34950 ft 434 kts 28°
2026-04-22 05:54 -9.85138 -36.22770 34946 ft 434 kts 28°
2026-04-22 05:54 -9.79894 -36.19723 34947 ft 433 kts 28°
2026-04-22 05:55 -9.74676 -36.16692 34954 ft 431 kts 28°
2026-04-22 05:55 -9.69446 -36.13655 34957 ft 430 kts 28°
2026-04-22 05:56 -9.64245 -36.10636 34954 ft 432 kts 28°
2026-04-22 05:56 -9.59033 -36.07613 34958 ft 430 kts 28°
2026-04-22 05:57 -9.53830 -36.04596 34959 ft 430 kts 28°
2026-04-22 05:57 -9.48625 -36.01578 34959 ft 429 kts 28°
2026-04-22 05:58 -9.43460 -35.98585 34961 ft 427 kts 28°
2026-04-22 05:58 -9.38308 -35.95600 34963 ft 426 kts 28°
2026-04-22 05:59 -9.33128 -35.92600 34970 ft 427 kts 28°
2026-04-22 05:59 -9.27947 -35.89602 34972 ft 427 kts 28°
2026-04-22 06:00 -9.22785 -35.86615 34970 ft 428 kts 28°
2026-04-22 06:00 -9.17599 -35.83615 34977 ft 427 kts 29°
2026-04-22 06:01 -9.12410 -35.80613 34980 ft 427 kts 28°
2026-04-22 06:01 -9.07269 -35.77640 34973 ft 426 kts 28°
2026-04-22 06:02 -9.02022 -35.74741 34963 ft 426 kts 24°
2026-04-22 06:02 -8.96459 -35.72612 34982 ft 426 kts 17°
2026-04-22 06:03 -8.90791 -35.70889 34980 ft 426 kts 16°
2026-04-22 06:03 -8.85176 -35.69228 34986 ft 425 kts 16°
2026-04-22 06:04 -8.79471 -35.67506 34989 ft 425 kts 17°
2026-04-22 06:04 -8.73797 -35.65764 34986 ft 425 kts 17°
2026-04-22 06:05 -8.68125 -35.64008 34989 ft 425 kts 17°
2026-04-22 06:05 -8.62479 -35.62256 34968 ft 424 kts 17°
2026-04-22 06:06 -8.59656 -35.61379 34637 ft 419 kts 17°
2026-04-22 06:06 -8.56900 -35.60523 34167 ft 415 kts 17°
2026-04-22 06:06 -8.54125 -35.59661 33578 ft 412 kts 17°
2026-04-22 06:06 -8.51413 -35.58819 32929 ft 411 kts 17°
2026-04-22 06:07 -8.48668 -35.57967 32279 ft 411 kts 17°
2026-04-22 06:07 -8.45924 -35.57114 31603 ft 413 kts 17°
2026-04-22 06:07 -8.43157 -35.56254 30871 ft 415 kts 17°
2026-04-22 06:07 -8.40380 -35.55392 30098 ft 419 kts 17°
2026-04-22 06:08 -8.37613 -35.54533 29313 ft 423 kts 16°
2026-04-22 06:08 -8.34778 -35.53653 28506 ft 427 kts 16°
2026-04-22 06:08 -8.31924 -35.52768 27674 ft 431 kts 15°
2026-04-22 06:08 -8.29010 -35.51866 26842 ft 435 kts 16°
2026-04-22 06:09 -8.26097 -35.50964 26208 ft 439 kts 16°
2026-04-22 06:09 -8.23182 -35.50063 25541 ft 446 kts 16°
2026-04-22 06:09 -8.20201 -35.49140 24835 ft 446 kts 16°
2026-04-22 06:09 -8.17220 -35.48216 24128 ft 445 kts 16°
2026-04-22 06:10 -8.14279 -35.47304 23435 ft 444 kts 16°
2026-04-22 06:10 -8.11301 -35.46382 22728 ft 443 kts 17°
2026-04-22 06:10 -8.08357 -35.45470 22020 ft 442 kts 17°
2026-04-22 06:10 -8.05385 -35.44549 21306 ft 441 kts 17°
2026-04-22 06:11 -8.02476 -35.43649 20598 ft 440 kts 18°
2026-04-22 06:11 -7.99544 -35.42741 19887 ft 439 kts 18°
2026-04-22 06:11 -7.96627 -35.41839 19179 ft 438 kts 18°
2026-04-22 06:11 -7.93676 -35.40926 18460 ft 437 kts 18°
2026-04-22 06:12 -7.90801 -35.40034 17757 ft 435 kts 18°
2026-04-22 06:12 -7.87906 -35.39136 17047 ft 433 kts 18°
2026-04-22 06:12 -7.85073 -35.38257 16351 ft 431 kts 18°
2026-04-22 06:12 -7.82161 -35.37355 15637 ft 429 kts 18°
2026-04-22 06:13 -7.79340 -35.36482 14949 ft 426 kts 18°
2026-04-22 06:13 -7.76480 -35.35596 14249 ft 423 kts 18°
2026-04-22 06:13 -7.73682 -35.34731 13565 ft 420 kts 18°
2026-04-22 06:13 -7.70870 -35.33861 12879 ft 417 kts 19°
2026-04-22 06:14 -7.68090 -35.33002 12194 ft 414 kts 18°
2026-04-22 06:14 -7.65337 -35.32150 11504 ft 411 kts 19°
2026-04-22 06:14 -7.62605 -35.31306 10864 ft 407 kts 19°
2026-04-22 06:14 -7.59933 -35.30481 10482 ft 396 kts 19°
2026-04-22 06:15 -7.57333 -35.29680 10327 ft 379 kts 19°
2026-04-22 06:15 -7.54858 -35.28916 10170 ft 364 kts 19°
2026-04-22 06:15 -7.52454 -35.28173 9827 ft 356 kts 19°
2026-04-22 06:15 -7.50111 -35.27447 9339 ft 353 kts 19°
2026-04-22 06:16 -7.47760 -35.26718 8874 ft 349 kts 19°
2026-04-22 06:16 -7.45439 -35.26000 8421 ft 345 kts 19°
2026-04-22 06:16 -7.43157 -35.25294 7980 ft 341 kts 19°
2026-04-22 06:16 -7.40914 -35.24601 7538 ft 338 kts 19°
2026-04-22 06:17 -7.38658 -35.23904 7096 ft 334 kts 19°
2026-04-22 06:17 -7.36444 -35.23220 6662 ft 331 kts 19°
2026-04-22 06:17 -7.34246 -35.22541 6230 ft 327 kts 19°
2026-04-22 06:17 -7.32071 -35.21870 5801 ft 324 kts 19°
2026-04-22 06:18 -7.29940 -35.21211 5421 ft 319 kts 19°
2026-04-22 06:18 -7.27826 -35.20560 5273 ft 307 kts 19°
2026-04-22 06:18 -7.25812 -35.19941 5180 ft 293 kts 19°
2026-04-22 06:18 -7.23903 -35.19353 5087 ft 281 kts 20°
2026-04-22 06:19 -7.22064 -35.18785 4909 ft 273 kts 19°
2026-04-22 06:19 -7.20219 -35.18213 4447 ft 278 kts 20°
2026-04-22 06:19 -7.18365 -35.17636 4092 ft 276 kts 20°
2026-04-22 06:19 -7.16518 -35.17067 3765 ft 274 kts 19°
2026-04-22 06:20 -7.14718 -35.16513 3634 ft 264 kts 19°
2026-04-22 06:20 -7.12992 -35.15983 3559 ft 253 kts 20°
2026-04-22 06:20 -7.11352 -35.15477 3480 ft 242 kts 20°
2026-04-22 06:20 -7.09770 -35.14957 3389 ft 232 kts 25°
2026-04-22 06:21 -7.08410 -35.14156 3204 ft 222 kts 45°
2026-04-22 06:21 -7.07338 -35.13052 2920 ft 219 kts 51°
2026-04-22 06:21 -7.06321 -35.11924 2669 ft 216 kts 50°
2026-04-22 06:21 -7.05290 -35.10842 2430 ft 214 kts 49°
2026-04-22 06:22 -7.04253 -35.09781 2245 ft 208 kts 51°
2026-04-22 06:22 -7.03467 -35.08624 2098 ft 195 kts 73°
2026-04-22 06:22 -7.03384 -35.07321 1967 ft 180 kts 105°
2026-04-22 06:22 -7.03812 -35.06191 1977 ft 171 kts 119°
2026-04-22 06:23 -7.04528 -35.05228 1978 ft 171 kts 136°
2026-04-22 06:23 -7.05405 -35.04425 1974 ft 172 kts 137°
2026-04-22 06:23 -7.06281 -35.03596 1970 ft 170 kts 135°
2026-04-22 06:23 -7.07121 -35.02761 1961 ft 172 kts 135°
2026-04-22 06:24 -7.08828 -35.01062 1701 ft 168 kts 135°
2026-04-22 06:24 -7.09646 -35.00250 1425 ft 162 kts 135°
2026-04-22 06:24 -7.10411 -34.99489 1223 ft 149 kts 136°
2026-04-22 06:25 -7.11148 -34.98756 1050 ft 148 kts 136°
2026-04-22 06:25 -7.11875 -34.98036 822 ft 146 kts 136°
2026-04-22 06:25 -7.12601 -34.97317 631 ft 147 kts 136°
2026-04-22 06:25 -7.13333 -34.96589 443 ft 148 kts 136°
2026-04-22 06:26 -7.14069 -34.95851 259 ft 149 kts 136°
2026-04-22 06:26 -7.14735 -34.95196 219 ft 97 kts 132°
2026-04-22 06:26 -7.15014 -34.94916 219 ft 31 kts 135°
2026-04-22 06:26 -7.15082 -34.94857 219 ft 3 kts 184°
2026-04-22 06:27 -7.15085 -34.94873 219 ft 2 kts 310°
2026-04-22 06:27 -7.15044 -34.94895 219 ft 11 kts 328°
2026-04-22 06:27 -7.14964 -34.94966 219 ft 16 kts 315°
2026-04-22 06:27 -7.14885 -34.95046 219 ft 16 kts 315°
2026-04-22 06:28 -7.14818 -34.95093 219 ft 8 kts 13°
2026-04-22 06:28 -7.14770 -34.95052 219 ft 9 kts 45°
2026-04-22 06:28 -7.14726 -34.95008 219 ft 8 kts 41°
2026-04-22 06:28 -7.14675 -34.95018 219 ft 8 kts 317°
2026-04-22 06:29 -7.14631 -34.95059 219 ft 8 kts 327°
2026-04-22 06:29 -7.14580 -34.95047 219 ft 8 kts 46°
2026-04-22 06:29 -7.14541 -34.95007 219 ft 7 kts 45°
2026-04-22 06:29 -7.14533 -34.94980 219 ft 4 kts 126°
2026-04-22 06:30 -7.14550 -34.94962 219 ft 2 kts 135°
2026-04-22 06:30 -7.14553 -34.94958 219 ft 0 kts 135°